SHIYAN-12 01 (SY-12 01)

Last updated on Mon Oct 20 2025 00:02:50 GMT+0000 (Coordinated Universal Time)

1 50321U 21129A 25292.75791556 -.00000349 00000+0 00000+0 0 9996 2 50321 3.0512 83.2572 0002760 180.8412 158.8902 1.00447436 14085
UTC large
Height (km)
Speed (km/s)
/
Latitude / Longitude
Inclination (degrees)
Orbital Period (minutes)
Azimuth
Elevation
Range (km)
Doppler Factor

Next 0 passes for location: London (51.5072 / 0.1276)

Sorry there are no passes over London.